Vorticity
-0 -0 -3 -1 4 0 2 3 4 3 3 1 2 2 1 4 5 7 8 6 7 7 8 9 8 7 6 6 6 6 6 6 4 4 4 5 4 4 2 3 3 4 6 9 9 11 10 11 10
1 -2 4 7 0 1 1 2 3 2 3 3 3 3 2 4 6 9 8 7 7 7 9 7 7 6 6 7 5 5 4 4 4 3 3 3 4 5 5 5 6 5 8 4 8 -2 2 1 2
1 4 1 3 -1 1 2 2 4 3 2 3 2 1 3 3 6 7 5 7 7 6 8 7 6 6 4 3 3 4 3 3 3 3 4 5 5 6 7 8 6 4 5 1 4 0 1 6 5
2 -3 -3 6 2 -1 2 2 2 2 3 3 2 2 5 5 8 6 6 7 5 7 6 7 5 4 3 3 3 3 3 4 4 3 4 4 5 7 5 6 5 6 5 9 2 0 -0 5 10
0 8 3 8 6 4 4 3 3 3 2 2 2 1 5 8 6 5 7 6 7 7 7 5 3 3 3 3 3 3 3 5 5 4 8 7 7 8 9 4 10 6 9 4 11 12 9 2 4
-7 7 -0 6 5 1 3 3 2 3 2 3 2 3 5 4 7 6 5 6 8 7 6 4 4 3 2 2 3 4 5 5 5 6 7 5 7 8 6 6 3 9 10 6 4 8 7 12 10
1 -0 2 4 4 3 3 4 3 4 2 2 2 2 6 7 7 4 6 6 7 6 5 4 3 1 3 3 3 4 4 5 6 8 10 8 5 4 -4 1 3 4 13 3 8 6 7 7 20
17 15 5 2 5 5 5 3 3 3 1 2 3 3 6 7 6 5 6 6 7 6 4 4 4 2 3 3 3 3 3 4 5 9 11 6 4 -2 2 -4 2 7 4 18 7 4 5 12 21
-2 2 1 1 3 6 5 2 2 3 4 3 4 6 5 6 5 6 7 9 6 5 4 3 2 4 3 2 3 3 4 6 8 13 14 6 1 1 2 4 6 8 9 9 9 10 7 19 23
7 8 6 4 5 4 6 1 4 3 3 3 5 5 5 5 8 7 7 7 4 4 3 5 3 3 3 2 3 4 6 8 12 11 9 10 8 4 1 6 2 8 8 -2 12 10 20 20 21
5 5 6 5 5 6 7 1 2 2 3 3 5 5 4 9 9 6 9 4 7 5 5 4 2 3 4 3 3 5 7 12 13 8 7 10 5 -3 6 3 4 4 10 9 10 20 18 19 25
4 3 5 6 5 7 9 2 2 3 2 3 5 5 8 7 7 9 7 5 6 4 5 3 2 4 5 4 6 7 12 11 10 8 11 2 1 6 5 5 5 6 12 9 14 17 14 21 24
4 4 5 4 5 7 4 3 2 3 3 4 6 5 6 8 8 8 4 6 5 4 4 3 4 6 4 4 6 9 13 10 8 8 5 5 6 4 5 5 6 11 11 11 17 14 18 16 22
1 3 3 4 7 5 5 5 7 4 4 4 3 4 5 8 8 6 6 7 6 4 3 4 5 5 6 6 6 14 10 8 7 7 6 5 7 5 3 4 12 12 13 17 15 14 17 16 21
0 3 2 5 5 5 4 7 4 4 4 4 3 5 5 7 7 5 8 8 6 4 3 3 4 6 4 5 10 11 7 8 4 5 5 9 8 4 4 10 13 15 15 14 14 16 15 23 22
6 3 3 4 5 3 5 5 5 3 4 5 5 5 6 4 8 6 9 9 3 4 4 1 6 4 4 5 12 9 8 5 4 4 9 6 4 7 8 15 16 17 15 11 14 15 16 25 20
3 2 4 4 3 4 4 6 6 5 5 4 5 6 5 6 6 4 7 6 4 5 3 1 5 3 5 8 11 7 7 4 2 5 7 4 3 7 9 16 18 16 12 12 12 15 16 21 15
3 6 4 4 4 4 4 6 6 6 5 5 6 5 7 7 4 4 6 6 4 4 2 3 4 4 5 9 9 7 6 3 5 4 5 5 5 7 15 17 18 11 13 15 14 16 16 18 16
6 5 5 4 4 3 5 4 6 6 5 6 5 7 7 8 4 5 5 5 3 4 3 4 4 5 7 13 8 8 4 2 3 5 2 5 9 16 15 16 14 14 17 15 13 17 14 13 12
5 4 4 5 4 3 4 5 7 6 3 5 6 7 8 9 5 7 6 4 5 4 4 4 5 5 8 10 6 5 4 3 4 3 5 7 14 17 20 15 20 19 16 13 13 16 17 14 10
5 4 5 4 4 4 7 1 10 3 4 5 8 7 12 9 8 7 5 4 5 4 4 4 5 5 11 8 6 4 4 4 3 4 5 9 16 18 16 22 18 15 12 11 12 14 16 12 15
6 6 6 5 4 4 8 5 4 5 4 5 7 10 10 10 8 5 5 7 4 4 4 4 5 9 10 6 5 4 6 5 4 5 8 15 21 18 24 16 13 12 11 11 13 16 17 17 14
5 5 5 5 5 4 8 6 2 4 5 6 8 9 9 8 7 6 7 6 4 4 3 5 6 10 8 7 5 4 4 4 3 8 15 18 18 25 13 13 13 11 12 12 14 15 14 13 12
6 7 5 4 5 6 3 6 4 3 3 6 4 7 6 9 9 9 8 4 4 4 3 4 8 11 8 5 5 4 4 4 6 14 15 18 23 14 14 13 11 12 14 14 11 9 8 8 10
8 6 5 5 6 4 5 5 4 4 5 2 4 5 8 11 10 7 7 5 4 4 4 7 10 10 5 6 4 4 4 5 12 11 16 23 14 13 13 11 13 14 12 10 10 12 10 8 7
5 4 5 4 8 5 3 5 7 5 5 6 4 5 10 12 10 8 6 5 5 4 5 9 12 7 8 5 3 3 4 9 11 13 22 16 12 14 11 15 15 11 11 10 8 6 9 16 26
5 5 5 7 5 5 2 6 5 4 6 3 3 5 9 11 11 9 6 5 5 4 6 11 9 9 5 4 3 4 9 11 15 18 17 11 14 12 15 15 10 10 8 7 12 24 27 22 17
4 4 8 9 6 6 3 4 5 4 2 4 3 3 9 11 10 7 5 7 4 5 8 10 8 6 4 4 4 6 12 9 19 17 11 14 13 17 14 10 10 7 9 21 26 15 13 13 14
7 6 6 5 3 7 6 6 5 4 6 3 4 5 10 11 8 6 8 5 5 6 10 7 9 4 4 4 4 11 6 18 18 12 14 13 17 15 9 10 7 9 23 22 8 10 15 11 15
8 6 7 7 8 5 6 3 10 4 2 3 4 8 10 10 8 7 6 5 6 8 8 11 5 4 5 3 9 8 11 21 14 14 13 16 17 10 10 8 8 19 23 10 12 8 16 14 19
Height
5910 5911 5911 5912 5914 5910 5907 5905 5901 5899 5898 5897 5895 5892 5890 5888 5886 5887 5881 5878 5876 5873 5870 5868 5866 5863 5860 5858 5855 5853 5851 5850 5848 5845 5843 5840 5837 5833 5830 5826 5823 5819 5816 5813 5810 5808 5806 5803 5802
5912 5912 5912 5912 5912 5909 5907 5904 5901 5899 5898 5896 5894 5891 5888 5889 5887 5885 5882 5878 5875 5873 5870 5867 5864 5863 5859 5857 5854 5852 5850 5846 5844 5841 5838 5834 5831 5827 5824 5819 5816 5812 5808 5805 5802 5800 5797 5794 5793
5912 5912 5913 5913 5911 5909 5906 5903 5901 5899 5897 5895 5893 5891 5889 5888 5886 5882 5879 5877 5874 5872 5868 5866 5863 5862 5857 5854 5852 5850 5847 5844 5840 5836 5832 5828 5825 5821 5817 5814 5809 5804 5801 5797 5794 5790 5786 5783 5779
5913 5914 5914 5914 5911 5908 5905 5902 5900 5898 5896 5896 5893 5892 5891 5887 5884 5880 5877 5875 5872 5869 5866 5864 5861 5858 5854 5851 5848 5845 5842 5838 5834 5830 5826 5822 5817 5813 5809 5805 5800 5796 5791 5787 5783 5779 5775 5771 5767
5914 5914 5914 5913 5910 5909 5906 5902 5900 5899 5898 5896 5894 5891 5889 5886 5883 5880 5877 5874 5871 5868 5865 5862 5858 5855 5851 5848 5845 5842 5838 5834 5829 5824 5820 5815 5810 5805 5800 5796 5792 5787 5782 5777 5772 5768 5763 5758 5753
5915 5915 5915 5912 5909 5909 5907 5903 5901 5899 5897 5895 5892 5890 5888 5884 5881 5878 5875 5872 5869 5866 5862 5859 5855 5852 5849 5846 5843 5840 5835 5829 5823 5817 5811 5806 5801 5796 5792 5786 5782 5777 5770 5764 5758 5752 5748 5742 5736
5915 5915 5913 5911 5909 5908 5906 5902 5900 5898 5896 5895 5891 5889 5887 5882 5879 5876 5873 5870 5866 5862 5859 5856 5853 5850 5848 5843 5838 5833 5827 5821 5816 5811 5805 5800 5795 5788 5782 5777 5770 5764 5756 5751 5744 5738 5731 5724 5717
5915 5914 5912 5910 5908 5908 5905 5902 5899 5897 5895 5892 5890 5887 5884 5881 5876 5873 5870 5867 5863 5859 5856 5853 5850 5846 5842 5836 5832 5826 5821 5815 5810 5804 5798 5792 5785 5780 5773 5766 5758 5751 5743 5734 5726 5719 5712 5705 5698
5914 5913 5911 5909 5908 5906 5904 5900 5898 5896 5894 5891 5888 5885 5882 5878 5874 5870 5867 5864 5860 5857 5854 5849 5844 5839 5836 5831 5826 5820 5814 5808 5801 5795 5789 5782 5775 5768 5760 5752 5746 5738 5730 5721 5711 5702 5692 5684 5678
5912 5911 5909 5907 5906 5904 5901 5898 5897 5895 5892 5889 5887 5883 5879 5876 5872 5868 5865 5861 5857 5853 5848 5843 5840 5836 5832 5826 5820 5814 5807 5801 5794 5787 5780 5773 5766 5758 5750 5741 5732 5723 5714 5706 5696 5686 5677 5668 5660
5910 5909 5908 5906 5905 5902 5899 5897 5895 5893 5890 5888 5885 5881 5876 5873 5869 5865 5861 5858 5854 5849 5844 5840 5837 5832 5827 5821 5814 5807 5800 5793 5785 5779 5772 5764 5756 5748 5739 5730 5719 5708 5697 5688 5678 5668 5659 5653 5647
5908 5907 5907 5905 5903 5900 5898 5895 5893 5890 5889 5885 5882 5878 5874 5869 5865 5862 5859 5855 5850 5846 5840 5836 5832 5826 5821 5815 5808 5800 5793 5785 5777 5770 5763 5756 5747 5738 5728 5718 5706 5695 5683 5671 5661 5652 5645 5638 5634
5907 5907 5905 5903 5901 5898 5896 5894 5892 5889 5885 5882 5879 5874 5869 5865 5862 5859 5855 5851 5846 5842 5836 5831 5826 5821 5815 5808 5801 5792 5784 5776 5768 5761 5754 5745 5736 5726 5715 5703 5693 5682 5670 5660 5649 5639 5631 5626 5621
5905 5904 5902 5900 5899 5897 5894 5892 5889 5886 5882 5879 5875 5871 5867 5863 5860 5855 5851 5846 5843 5838 5831 5826 5820 5814 5807 5801 5793 5784 5776 5767 5760 5752 5744 5734 5724 5713 5702 5690 5679 5667 5655 5644 5636 5627 5619 5613 5609
5903 5902 5900 5899 5897 5895 5892 5890 5888 5884 5880 5876 5873 5869 5865 5861 5856 5851 5847 5844 5840 5833 5826 5820 5814 5807 5801 5793 5784 5775 5767 5759 5751 5742 5732 5722 5711 5699 5687 5676 5664 5653 5642 5632 5623 5614 5606 5600 5597
5900 5899 5897 5896 5895 5892 5890 5888 5885 5881 5877 5873 5870 5865 5861 5856 5851 5846 5842 5838 5833 5827 5820 5813 5807 5801 5792 5783 5775 5767 5757 5749 5740 5731 5720 5709 5698 5686 5673 5661 5648 5637 5627 5618 5609 5602 5595 5588 5585
5895 5895 5894 5892 5891 5889 5886 5884 5881 5878 5874 5870 5866 5862 5856 5851 5846 5840 5836 5832 5827 5821 5813 5807 5799 5791 5783 5774 5766 5757 5749 5739 5730 5720 5709 5697 5683 5670 5657 5645 5633 5622 5613 5604 5595 5589 5584 5579 5575
5891 5891 5890 5888 5887 5885 5882 5880 5877 5874 5870 5865 5862 5857 5852 5846 5841 5834 5830 5826 5820 5814 5807 5800 5792 5783 5774 5765 5757 5747 5738 5729 5719 5709 5697 5684 5672 5658 5644 5632 5621 5611 5600 5590 5582 5576 5572 5568 5565
5887 5886 5885 5884 5883 5881 5879 5875 5873 5870 5865 5861 5857 5852 5847 5842 5836 5830 5826 5821 5815 5809 5801 5793 5785 5775 5766 5756 5747 5737 5728 5719 5709 5698 5686 5672 5658 5645 5632 5619 5606 5594 5585 5579 5572 5565 5561 5558 5555
5881 5881 5880 5880 5878 5876 5874 5872 5869 5865 5860 5856 5852 5848 5843 5838 5832 5826 5821 5816 5810 5803 5795 5787 5777 5768 5759 5749 5739 5729 5720 5709 5697 5685 5671 5657 5643 5629 5617 5605 5594 5586 5576 5567 5560 5554 5549 5546 5543
5876 5875 5874 5874 5872 5871 5868 5868 5864 5861 5855 5851 5848 5843 5838 5833 5827 5822 5816 5810 5804 5796 5788 5778 5770 5760 5750 5740 5729 5719 5709 5696 5683 5669 5656 5643 5630 5617 5604 5592 5583 5574 5564 5556 5549 5543 5538 5535 5531
5870 5869 5869 5868 5867 5866 5865 5860 5860 5855 5850 5847 5843 5838 5833 5827 5822 5816 5810 5803 5796 5788 5779 5771 5762 5751 5741 5731 5722 5712 5701 5688 5674 5660 5647 5631 5618 5603 5591 5581 5570 5561 5552 5545 5538 5531 5526 5522 5519
5865 5865 5864 5863 5862 5861 5860 5855 5856 5849 5845 5842 5838 5833 5827 5822 5816 5809 5803 5797 5789 5780 5772 5763 5753 5743 5732 5723 5713 5702 5689 5676 5662 5648 5632 5617 5603 5590 5580 5569 5560 5550 5542 5534 5527 5520 5515 5510 5506
5860 5859 5858 5857 5857 5856 5854 5851 5850 5843 5840 5836 5832 5827 5821 5815 5808 5802 5796 5790 5781 5772 5764 5755 5745 5734 5724 5714 5703 5692 5679 5666 5652 5636 5621 5606 5593 5581 5569 5559 5549 5540 5532 5524 5516 5509 5503 5497 5491
5854 5853 5852 5851 5851 5850 5847 5845 5843 5838 5835 5831 5826 5820 5815 5808 5801 5795 5789 5782 5773 5765 5757 5748 5737 5726 5716 5706 5694 5682 5669 5656 5641 5625 5610 5597 5584 5573 5561 5551 5541 5531 5522 5513 5505 5497 5489 5482 5475
5847 5847 5847 5844 5843 5842 5840 5838 5835 5832 5829 5825 5819 5814 5808 5801 5795 5789 5783 5774 5767 5758 5749 5739 5728 5718 5708 5697 5686 5673 5659 5644 5629 5614 5599 5587 5575 5564 5552 5541 5531 5521 5511 5501 5492 5483 5473 5464 5455
5842 5842 5841 5838 5836 5834 5834 5834 5831 5827 5823 5818 5813 5808 5802 5795 5789 5783 5775 5768 5760 5751 5741 5731 5720 5710 5700 5689 5677 5663 5648 5633 5618 5603 5590 5578 5566 5554 5543 5532 5522 5511 5500 5489 5478 5467 5457 5446 5438
5835 5836 5835 5833 5829 5828 5828 5826 5824 5821 5816 5812 5807 5802 5795 5789 5782 5775 5768 5760 5752 5743 5733 5722 5712 5703 5692 5681 5668 5653 5639 5624 5609 5594 5581 5570 5558 5546 5535 5524 5513 5502 5490 5477 5467 5457 5447 5437 5427
5829 5828 5827 5826 5825 5822 5820 5820 5817 5812 5808 5804 5800 5795 5788 5781 5775 5768 5761 5754 5745 5735 5725 5715 5705 5696 5684 5671 5657 5643 5629 5615 5601 5587 5575 5563 5552 5540 5529 5518 5507 5494 5481 5470 5460 5450 5439 5428 5418
5820 5820 5821 5819 5819 5816 5814 5814 5808 5804 5801 5797 5793 5787 5781 5774 5767 5761 5754 5746 5737 5727 5717 5708 5698 5687 5676 5661 5648 5634 5621 5607 5593 5581 5569 5557 5545 5534 5523 5512 5500 5486 5475 5465 5455 5445 5433 5422 5411